Regional Weather Roundup
Issued by NWS

Home | Current Version | Previous Version | Graphics & Text | Print | Product List | Glossary On
Versions: 1 2 3 4 5 6 7 8 9 10 11 12 13 14 15 16 17 18 19 20 21 22 23 24 25 26 27 28 29 30 31 32 33 34 35 36 37 38 39 40 41 42 43 44 45 46 47 48 49 50
000
ASUS43 KMPX 020701
RWRMN
WEATHER ROUNDUP FOR MINNESOTA
NATIONAL WEATHER SERVICE TWIN CITIES/CHANHASSEN MN
200 AM CDT THU OCT 02 2014


NOTE: "FAIR" INDICATES FEW OR NO CLOUDS BELOW 12,000 FEET WITH NO
SIGNIFICANT WEATHER AND/OR OBSTRUCTIONS TO VISIBILITY. N/A MEANS
CURRENT SKY AND/OR WEATHER CONDITIONS ARE NOT AVAILABLE.

MNZ060>063-068>070-020800-
   Twin Cities Metro

CITY           SKY/WX    TMP DP  RH WIND       PRES   REMARKS
TWIN CITIES    MOCLDY    56  55  97 NE3       29.82S FOG
ST PAUL        CLOUDY    57  57 100 CALM      29.83R FOG
CRYSTAL        CLOUDY    59  56  89 CALM      29.82R FOG
BLAINE         CLOUDY    59  59 100 N3        29.83R FOG
LAKEVILLE      FOG       54  54 100 CALM      29.82R VSB<1/4
EDEN PRAIRIE   FOG       54  54 100 N3        29.81R VSB 1/4
SOUTH ST PAUL  FOG       55  54  95 CALM      29.82R VSB 1/4
LAKE ELMO      FOG       54  54 100 CALM      29.84R VSB<1/4
$$
MNZ001>005-007-008-013>017-022>024-027-028-020800-
   Northwest Minnesota

CITY           SKY/WX    TMP DP  RH WIND       PRES   REMARKS
BEMIDJI        MOCLDY    52  49  92 SW6       29.79R
HALLOCK        CLEAR     52  48  87 W6        29.75R
ROSEAU         CLOUDY    55  48  76 W7        29.74R
WARROAD        CLOUDY    54  50  87 SW7       29.73R
THIEF RVR FALL CLOUDY    55  50  82 W8        29.77R
CROOKSTON      CLOUDY    55  50  82 W8        29.78S
FOSSTON        CLOUDY    54  48  82 CALM      29.79R
DETROIT LAKES  CLOUDY    55  50  82 W7        29.83R
PARK RAPIDS    MOCLDY    48  46  93 SW5       29.81R
MAHNOMEN       CLOUDY    55  50  82 W9        29.80R
$$
MNZ006-009>011-018-025>026-020800-
   North Central Minnesota

CITY           SKY/WX    TMP DP  RH WIND       PRES   REMARKS
BAUDETTE       CLOUDY    53  50  89 SW6       29.73R
FLAG ISLAND    CLOUDY    54  50  87 W9        29.69R
INTL FALLS     CLOUDY    55  53  93 VRB6      29.74R
WASKISH        PTCLDY    55  52  88 CALM      29.76R
BIG FORK       MOCLDY    55  54  94 S5        29.78S
LONGVILLE      MOCLDY    52  52 100 S3        29.80S FOG
GRAND RAPIDS   CLOUDY   N/A N/A N/A S8        29.80S
CRANE LAKE     CLOUDY    52  52 100 S5        29.78S
ORR            CLOUDY    54  50  87 S3        29.76R FOG
COOK           CLOUDY    52  52 100 S6        29.79S FOG
WALKER         FAIR      51  51  97 CALM      29.78F
$$
MNZ012-019>021-037-020800-
   Northeast Minnesota

CITY           SKY/WX    TMP DP  RH WIND       PRES   REMARKS
DULUTH         FOG       52  51  97 SW5       29.83S VSB 1/4
ELY            CLOUDY    52  50  93 SW6       29.80S
HIBBING        CLOUDY    53  51  93 S5        29.81S FOG
EVELETH        CLOUDY    52  52 100 S5        29.82F FOG
DULUTH HARBOR  CLOUDY    54  52  94 S3        29.84R
TWO HARBORS    CLOUDY    52  46  82 CALM      29.82R HAZE
SILVER BAY     CLOUDY    50  50 100 S3        29.82S FOG
GRAND MARAIS     N/A     51  50  96 CALM      29.83S
G MARAIS ARPRT DRZL/FOG  46  45  93 S3        29.84R VSB<1/4
$$
MNZ029>031-032-039>041-046>048-054>057-064-020800-
   West Central Minnesota

CITY           SKY/WX    TMP DP  RH WIND       PRES   REMARKS
FERGUS FALLS   CLOUDY    52  48  87 W5        29.85R
WHEATON        CLEAR     52  46  82 W6        29.87R
MORRIS         CLEAR     48  46  93 W6        29.85R
ALEXANDRIA     CLEAR     51  48  89 W6        29.85R
ELBOW LAKE     MOCLDY    49  47  91 W3        29.85R
WADENA         MOCLDY    52  48  87 W5        29.82R
GLENWOOD       CLEAR     52  48  87 W5        29.85R
APPLETON       CLEAR     48  46  93 W3        29.85R
BENSON         CLEAR     48  46  93 CALM      29.85S
ORTONVILLE     CLEAR     54  46  76 W6        29.85S
MADISON        MOCLDY    52  48  87 CALM      29.86S
WILLMAR        FOG       54  52  94 CALM      29.86S VSB 1/4
$$
MNZ033>034-036-042>043-049>051-058-059-020800-
   Central Minnesota

CITY           SKY/WX    TMP DP  RH WIND       PRES   REMARKS
ST CLOUD       CLOUDY    58  55  90 SW5       29.83S FOG
SAUK CENTRE    FOG       45  45 100 CALM      29.85R VSB 1/2
PAYNESVILLE    FOG       51  51 100 CALM      29.85R VSB 1/4
AITKIN         CLOUDY    55  52  88 SW3       29.81S HAZE
PINE RIVER     FOG       52  52 100 S3        29.85R VSB 1/2
BRAINERD       CLOUDY    53  52  96 SW8       29.83R FOG
STAPLES        FOG       46  46 100 CALM      29.82R VSB 1/2
LONG PRAIRIE   FOG       46  46 100 CALM      29.85R VSB 1/4
LITTLE FALLS   FOG       54  52  94 CALM      29.84R VSB 3/4
LITCHFIELD     FOG       57  57 100 W3        29.85R VSB 1/2
BUFFALO        CLOUDY    57  55  93 NW5       29.84S FOG
MAPLE LAKE     CLOUDY    58  57  99 CALM      29.84S FOG
$$
MNZ037-044-045-052-053-020800-
   East Central Minnesota

CITY           SKY/WX    TMP DP  RH WIND       PRES   REMARKS
MORA           FOG       54  52  94 CALM      29.84S VSB 3/4
CAMBRIDGE      HAZE      57  50  77 CALM      29.81S VSB 1/4
RUSH CITY      CLOUDY    54  53  97 CALM      29.83S FOG
MOOSE LAKE     FOG       52  52 100 CALM      29.80F VSB 3/4
HINCKLEY       CLOUDY    54  54 100 CALM      29.82F FOG
CLOQUET        FOG       52  52 100 CALM      29.82S VSB 1/2
$$
MNZ071>073-080-081-089-090-097-098-020800-
   Southwest Minnesota

CITY           SKY/WX    TMP DP  RH WIND       PRES   REMARKS
MONTEVIDEO     CLEAR     52  48  87 NW5       29.87R
GRANITE FALLS  CLEAR     47  47  98 W5        29.87R
CANBY          CLOUDY    52  50  92 CALM      29.87S
MARSHALL       CLEAR     48  45  87 NW8       29.85S
REDWOOD FALLS  CLEAR     54  53  97 NW5       29.84R
OLIVIA         FOG       50  46  87 CALM      29.84S VSB 1/4
PIPESTONE      CLEAR     54  48  82 N5        29.86F
WINDOM         FOG       57  57 100 NW8       29.84R VSB 1/4
WORTHINGTON    PTCLDY    54  52  94 N8        29.85S
JACKSON        PTCLDY    52  50  93 NW3       29.83S FOG
TRACY          CLEAR     53  50  90 NW5       29.86S
SLAYTON        CLEAR     53  49  89 CALM      29.86S
$$
MNZ065>067-074>077-082>085-091>093-020800-
   South Central Minnesota

CITY           SKY/WX    TMP DP  RH WIND       PRES   REMARKS
MANKATO        MOCLDY    57  52  82 CALM      29.81S VSB 1/2
NEW ULM        MOCLDY    55  55 100 NW7       29.83R FOG
ST JAMES       FOG       59  57  94 CALM      29.83R VSB<1/4
FAIRMONT       CLOUDY    54  50  87 N7        29.81S VSB<1/4
GLENCOE        FOG       56  56 100 CALM      29.83R VSB<1/4
FARIBAULT      FOG       54  54 100 CALM      29.83R VSB 1/4
OWATONNA       MOCLDY    57  55  94 CALM      29.82S FOG
WASECA         FOG       52  48  87 CALM      29.83S VSB 1/4
ALBERT LEA     FOG       54  54 100 CALM      29.82S VSB 1/2
$$
MNZ078>079-086>088-094>096-020800-
   Southeast Minnesota

CITY           SKY/WX    TMP DP  RH WIND       PRES   REMARKS
ROCHESTER      PTCLDY    52  51  97 S5        29.83R FOG
RED WING       MOCLDY    54  54 100 CALM      29.82S FOG
STANTON        CLOUDY    56  55  94 CALM      29.82R FOG
DODGE CENTER   FOG       54  52  94 W5        29.82S VSB 3/4
WINONA         FOG       54  54 100 CALM      29.82F VSB 1/4
AUSTIN           N/A     52  52 100 CALM      29.82R
PRESTON        CLOUDY    54  53  97 S3        29.83F FOG
$$
ABBREVIATIONS USED IN REMARKS
   TC - TEMPERATURES IN CELSIUS
  WCI - WIND CHILL INDEX
   HX - HEAT INDEX
  VSB - VISIBILITY
$$


USA.gov is the U.S. government's official web portal to all federal, state and local government web resources and services.